Diboll, TX

9:38 AM CST on January 23, 2017 (GMT -0600)
Angelina County

Weather History for KLFK - October, 2011

Change the Weather History Date:

Wednesday, October 19, 2011

  Actual Average Record
Temperature  
Mean Temperature 56 °F 67 °F  
Max Temperature 71 °F 79 °F 96 °F (1920)
Min Temperature 41 °F 55 °F 28 °F (1948)
Degree Days  
Heating Degree Days 9 2  
Month to date heating degree days 13 24  
Since 1 July heating degree days 13 28  
Cooling Degree Days 0 4  
Month to date cooling degree days 113 109  
Year to date cooling degree days 3302 2506  
Growing Degree Days 8 (Base 50)    
Moisture  
Dew Point 32 °F    
Average Humidity 44    
Maximum Humidity 66    
Minimum Humidity 22    
Precipitation  
Precipitation 0.00 in 0.17 in 2.61 in (1998)
Month to date precipitation 0.16 2.70  
Year to date precipitation 21.84 37.37  
Snow  
Snow 0.00 in - - ()
Month to date snowfall 0.0  
Since 1 July snowfall 0.0  
Since 1 September snowfall 0.0  
Snow Depth 0.00 in    
Sea Level Pressure  
Sea Level Pressure 30.02 in    
Wind  
Wind Speed 8 mph (NW)    
Max Wind Speed 23 mph    
Max Gust Speed 37 mph    
Visibility 10 miles    
Events      
T = Trace of Precipitation, MM = Missing Value Source: NWS Daily Summary

Daily Weather History Graph

Daily Weather History Graph

Search for Another Location

Airport or City:

Trip Planner

Search our weather history database for the weather conditions in past years. The results will help you decide how hot, cold, wet, or windy it might be!

Date:

Astronomy

Oct. 19, 2011 Rise Set
Actual Time 7:24 AM CDT 6:43 PM CDT
Civil Twilight 6:59 AM CDT 7:07 PM CDT
Nautical Twilight 6:31 AM CDT 7:35 PM CDT
Astronomical Twilight 6:03 AM CDT 8:03 PM CDT
Moon No Moon Rise 1:45 PM CDT (10/19)
Length of Visible Light 12h 07m
Length of Day
11h 18m
Waning Gibbous, 54% of the Moon is Illuminated
Oct 19
Waning Gibbous
Oct 19
Last Quarter
Oct 26
New
Nov 2
First Quarter
Nov 10
Full

Hourly Weather History & Observations

Time (CDT) Temp. Windchill Dew Point Humidity Pressure Visibility Wind Dir Wind Speed Gust Speed Precip Events Conditions
12:53 AM 50.0 °F - 37.0 °F 61% 29.99 in 10.0 mi Calm Calm - N/A   Clear
1:53 AM 48.0 °F - 37.0 °F 66% 29.99 in 10.0 mi WNW 3.5 mph - N/A   Clear
2:53 AM 48.9 °F - 36.0 °F 61% 29.98 in 10.0 mi WNW 5.8 mph - N/A   Clear
3:53 AM 48.9 °F - 36.0 °F 61% 29.99 in 10.0 mi NW 5.8 mph - N/A   Clear
4:53 AM 48.9 °F - 34.0 °F 56% 29.99 in 10.0 mi NW 4.6 mph - N/A   Clear
5:53 AM 48.2 °F - 33.8 °F 58% 30.02 in 10.0 mi WNW 5.8 mph - N/A   Clear
6:53 AM 48.0 °F - 32.0 °F 54% 30.02 in 10.0 mi NW 5.8 mph - N/A   Clear
7:53 AM 46.0 °F 43.9 °F 32.0 °F 58% 30.03 in 10.0 mi WNW 4.6 mph - N/A   Clear
8:53 AM 52.0 °F - 33.1 °F 49% 30.06 in 10.0 mi NW 9.2 mph - N/A   Clear
9:53 AM 57.2 °F - 30.2 °F 36% 30.08 in 10.0 mi NW 12.7 mph 20.7 mph N/A   Clear
11:53 AM 62.6 °F - 28.4 °F 27% 30.07 in 10.0 mi NW 13.8 mph 19.6 mph N/A   Clear
12:53 PM 66.0 °F - 28.0 °F 24% 30.04 in 10.0 mi NNW 13.8 mph 25.3 mph N/A   Clear
1:53 PM 68.0 °F - 28.9 °F 23% 30.00 in 10.0 mi NW 13.8 mph 23.0 mph N/A   Clear
2:53 PM 69.1 °F - 28.9 °F 22% 29.98 in 10.0 mi NW 18.4 mph 27.6 mph N/A   Clear
3:53 PM 70.0 °F - 28.0 °F 21% 29.97 in 10.0 mi WNW 19.6 mph 27.6 mph N/A   Clear
4:53 PM 69.1 °F - 28.9 °F 22% 29.98 in 10.0 mi NW 15.0 mph 31.1 mph N/A   Clear
5:53 PM 66.9 °F - 28.9 °F 24% 29.99 in 10.0 mi NW 8.1 mph 19.6 mph N/A   Clear
6:53 PM 63.0 °F - 30.0 °F 29% 30.00 in 10.0 mi NNW 4.6 mph - N/A   Clear
7:53 PM 60.1 °F - 30.0 °F 32% 30.03 in 10.0 mi NNW 3.5 mph - N/A   Clear
8:53 PM 55.0 °F - 30.9 °F 40% 30.04 in 10.0 mi Calm Calm - N/A   Clear
9:53 PM 55.0 °F - 30.9 °F 40% 30.06 in 10.0 mi Calm Calm - N/A   Clear
10:53 PM 46.9 °F - 32.0 °F 56% 30.08 in 10.0 mi Calm Calm - N/A   Clear
11:53 PM 44.1 °F - 30.9 °F 60% 30.09 in 10.0 mi Calm Calm - N/A   Clear